Location: Caltech
(34.1382°N, 118.1253°W)
Time: 22:54:29
(UTC-07:00)

Hamsat - Visible Passes

Search period start: 21 August 2014 00:00
Search period end: 31 August 2014 00:00
Orbit: 595 x 628 km, 97.6° (Epoch: 21 August)

Date Brightness Start Highest point End Pass type
(mag) Time Alt. Az. Time Alt. Az. Time Alt. Az.
22 Aug ? 05:36:32 10° E 05:37:23 11° E 05:38:14 10° ESE visible
23 Aug ? 05:49:25 10° NE 05:52:08 16° E 05:54:49 10° SE visible
29 Aug ? 05:41:49 10° ENE 05:43:50 13° E 05:45:50 10° ESE visible
30 Aug ? 05:55:25 10° NE 05:58:33 19° E 06:01:40 10° SE visible
